FW9915 Weather Reports


Display with metric or nautical units.
time (UTC)temp
F
wind
direction
speed
MPH
gust
MPH
rain 1hr
in
rain 24hr
in
rain mn
in
humidity
%
barometer
mb
20260831134521 80 68 5.0 9.0 0.00 0.00 0.00 43 1017.5
20260831133521 80 84 5.0 9.0 0.00 0.00 0.00 42 1017.5
20260831132521 80 54 5.0 9.0 0.00 0.00 0.00 44 1017.4
20260831131520 80 69 7.0 15.0 0.00 0.00 0.00 40 1017.4
20260831130552 80 108 5.0 9.0 0.00 0.00 0.00 50 1017.5
20260831125532 81 60 6.0 11.0 0.00 0.00 0.00 42 1017.6
20260831124520 81 70 5.0 9.0 0.00 0.00 0.00 42 1017.7
20260831123532 79 87 5.0 7.0 0.00 0.00 0.00 55 1017.7
20260831122520 80 68 6.0 9.0 0.00 0.00 0.00 46 1017.8
20260831121532 79 115 5.0 9.0 0.00 0.00 0.00 53 1017.8
20260831120520 79 58 4.0 9.0 0.00 0.00 0.00 53 1017.8
20260831115521 80 101 4.0 9.0 0.00 0.00 0.00 46 1017.9
20260831114520 79 101 4.0 9.0 0.00 0.00 0.00 49 1017.9
20260831113521 79 103 5.0 15.0 0.00 0.00 0.00 54 1017.9
20260831112520 80 89 4.0 7.0 0.00 0.00 0.00 49 1017.9
20260831111520 81 65 5.0 11.0 0.00 0.00 0.00 41 1018.0
20260831110520 80 60 5.0 9.0 0.00 0.00 0.00 46 1018.0
20260831105541 80 94 5.0 11.0 0.00 0.00 0.00 48 1018.1
20260831104520 79 139 5.0 9.0 0.00 0.00 0.00 60 1018.1
20260831103520 80 89 5.0 7.0 0.00 0.00 0.00 43 1018.1
20260831102533 80 70 5.0 11.0 0.00 0.00 0.00 44 1018.2
20260831101520 80 99 5.0 11.0 0.00 0.00 0.00 44 1018.2
20260831100520 80 69 7.0 9.0 0.00 0.00 0.00 46 1018.2
20260831095521 79 46 6.0 11.0 0.00 0.00 0.00 46 1018.3
20260831094601 79 45 6.0 11.0 0.00 0.00 0.00 46 1018.3
20260831093521 80 56 5.0 9.0 0.00 0.00 0.00 49 1018.3
20260831092520 79 58 6.0 11.0 0.00 0.00 0.00 49 1018.3
20260831091520 79 54 5.0 9.0 0.00 0.00 0.00 50 1018.4
20260831090521 79 59 6.0 9.0 0.00 0.00 0.00 51 1018.4
20260831085541 79 42 3.0 7.0 0.00 0.00 0.00 49 1018.5
20260831084520 78 58 5.0 9.0 0.00 0.00 0.00 51 1018.5
20260831083521 79 35 7.0 11.0 0.00 0.00 0.00 51 1018.5
20260831082540 79 36 7.0 11.0 0.00 0.00 0.00 51 1018.6
20260831081520 78 61 6.0 11.0 0.00 0.00 0.00 54 1018.5
20260831080521 78 57 6.0 9.0 0.00 0.00 0.00 59 1018.5
20260831075520 77 58 8.0 11.0 0.00 0.00 0.00 58 1018.4
20260831074520 77 48 6.0 11.0 0.00 0.00 0.00 62 1018.5
20260831073541 77 41 6.0 9.0 0.00 0.00 0.00 63 1018.5
20260831072520 76 71 6.0 11.0 0.00 0.00 0.00 63 1018.4
20260831071520 76 51 8.0 11.0 0.00 0.00 0.00 66 1018.3
20260831070521 75 53 7.0 11.0 0.00 0.00 0.00 73 1018.4
20260831065540 74 26 7.0 11.0 0.00 0.00 0.00 82 1018.4
20260831064520 73 29 7.0 9.0 0.00 0.00 0.00 89 1018.4
20260831063520 73 35 7.0 11.0 0.00 0.00 0.00 91 1018.4
20260831062521 72 40 6.0 9.0 0.00 0.00 0.00 93 1018.3
20260831061553 72 32 6.0 11.0 0.00 0.00 0.00 93 1018.3
20260831060521 72 27 5.0 9.0 0.00 0.00 0.00 92 1018.3
20260831055540 72 18 5.0 9.0 0.00 0.00 0.00 92 1018.2
20260831054533 71 26 6.0 11.0 0.00 0.00 0.00 95 1018.1
20260831053520 70 18 8.0 11.0 0.00 0.00 0.00 97 1018.0
20260831052532 70 18 9.0 15.0 0.00 0.00 0.00 96 1018.0
20260831051520 70 15 8.0 11.0 0.00 0.00 0.00 96 1018.0
20260831050520 69 1 7.0 11.0 0.00 0.00 0.00 96 1017.9
20260831045520 68 20 7.0 11.0 0.00 0.00 0.00 96 1017.8
20260831044521 68 15 6.0 9.0 0.00 0.00 0.00 98 1017.8
20260831043520 67 2 4.0 7.0 0.00 0.00 0.00 99 1017.8
20260831042521 67 328 3.0 7.0 0.00 0.00 0.00 99 1017.8
20260831041601 66 337 4.0 7.0 0.00 0.00 0.00 99 1017.9
20260831040521 65 327 4.0 7.0 0.00 0.00 0.00 99 1017.8
20260831035520 65 326 5.0 7.0 0.00 0.00 0.00 99 1017.8
20260831034521 64 340 3.0 4.0 0.00 0.00 0.00 99 1017.7
20260831033533 64 336 3.0 4.0 0.00 0.00 0.00 99 1017.7
20260831032520 64 334 4.0 7.0 0.00 0.00 0.00 99 1017.7
20260831031520 65 328 4.0 7.0 0.00 0.00 0.00 99 1017.7
20260831030520 65 336 5.0 7.0 0.00 0.00 0.00 99 1017.7
20260831025520 65 333 4.0 7.0 0.00 0.00 0.00 99 1017.8
20260831024521 65 329 4.0 7.0 0.00 0.00 0.00 99 1017.8
20260831023521 65 336 3.0 7.0 0.00 0.00 0.00 99 1017.8
20260831022533 65 330 4.0 4.0 0.00 0.00 0.00 98 1017.8
20260831021521 65 330 4.0 7.0 0.00 0.00 0.00 98 1017.8
20260831020520 65 326 5.0 9.0 0.00 0.00 0.00 97 1017.9
20260831015521 65 327 5.0 7.0 0.00 0.00 0.00 97 1017.8
20260831014533 65 331 4.0 7.0 0.00 0.00 0.00 97 1017.9
20260831013541 64 329 3.0 4.0 0.00 0.00 0.00 97 1017.9
20260831012521 64 328 3.0 7.0 0.00 0.00 0.00 97 1018.0
20260831011520 64 331 3.0 4.0 0.00 0.00 0.00 98 1017.9
20260831010520 64 333 3.0 4.0 0.00 0.00 0.00 98 1017.9
20260831005533 64 338 2.0 4.0 0.00 0.00 0.00 99 1018.0
20260831004521 64 338 2.0 4.0 0.00 0.00 0.00 99 1018.0
20260831003521 65 338 2.0 4.0 0.00 0.00 0.00 99 1018.0
20260831002521 65 336 2.0 4.0 0.00 0.00 0.00 99 1018.1
20260831001520 65 334 4.0 7.0 0.00 0.00 0.00 99 1018.1
20260831000521 65 338 2.0 4.0 0.00 0.00 0.00 99 1018.1
20260830235541 65 338 2.0 4.0 0.00 0.00 0.00 99 1018.0
20260830234521 65 338 1.0 4.0 0.00 0.00 0.00 98 1018.0
20260830233520 65 332 2.0 4.0 0.00 0.00 0.00 98 1018.1
20260830232520 66 326 2.0 4.0 0.00 0.00 0.00 98 1018.3
20260830231521 65 335 3.0 4.0 0.00 0.00 0.00 98 1018.3
20260830230521 66 23 2.0 4.0 0.00 0.00 0.00 98 1018.2
20260830225540 66 9 2.0 4.0 0.00 0.00 0.00 98 1018.3
20260830224521 66 338 2.0 4.0 0.00 0.00 0.00 97 1018.3
20260830223521 66 337 3.0 4.0 0.00 0.00 0.00 97 1018.4
20260830222533 66 332 3.0 4.0 0.00 0.00 0.00 97 1018.5
20260830221521 66 321 2.0 4.0 0.00 0.00 0.00 96 1018.4
20260830220521 66 338 2.0 4.0 0.00 0.00 0.00 96 1018.5
20260830215521 66 338 2.0 4.0 0.00 0.00 0.00 96 1018.4
20260830214520 66 341 2.0 4.0 0.00 0.00 0.00 95 1018.3
20260830213541 67 353 2.0 4.0 0.00 0.00 0.00 95 1018.4
20260830212533 67 6 2.0 4.0 0.00 0.00 0.00 95 1018.3
20260830211533 67 23 2.0 4.0 0.00 0.00 0.00 95 1018.3
20260830210521 67 338 2.0 4.0 0.00 0.00 0.00 94 1018.3
20260830205541 67 338 2.0 4.0 0.00 0.00 0.00 94 1018.4
20260830204521 67 338 2.0 4.0 0.00 0.00 0.00 94 1018.4
20260830203545 67 338 2.0 2.0 0.00 0.00 0.00 94 1018.4
20260830202521 67 356 2.0 4.0 0.00 0.00 0.00 93 1018.3
20260830201533 67 11 2.0 4.0 0.00 0.00 0.00 93 1018.2
20260830200541 67 23 2.0 4.0 0.00 0.00 0.00 92 1018.2
20260830195541 68 23 2.0 4.0 0.00 0.00 0.00 92 1018.2
20260830194521 68 23 3.0 4.0 0.00 0.00 0.00 91 1018.2
20260830193521 68 33 4.0 4.0 0.00 0.00 0.00 91 1018.2
20260830192521 68 24 3.0 4.0 0.00 0.00 0.00 91 1018.2
20260830191541 68 24 3.0 4.0 0.00 0.00 0.00 90 1018.2
20260830190521 68 23 3.0 4.0 0.00 0.00 0.00 88 1018.3
20260830185520 69 23 3.0 4.0 0.00 0.00 0.00 87 1018.3
20260830184521 69 33 4.0 7.0 0.00 0.00 0.00 86 1018.1
20260830183541 69 36 4.0 4.0 0.00 0.00 0.00 84 1018.1
20260830182521 69 41 4.0 4.0 0.00 0.00 0.00 83 1018.1
20260830181521 69 45 3.0 4.0 0.00 0.00 0.00 82 1018.0
20260830180520 70 45 3.0 4.0 0.00 0.00 0.00 81 1017.9
20260830175533 70 45 2.0 4.0 0.00 0.00 0.00 80 1018.0
20260830174541 70 68 2.0 4.0 0.00 0.00 0.00 80 1017.9
20260830173545 70 68 2.0 4.0 0.00 0.00 0.00 79 1017.7
20260830172521 71 68 3.0 4.0 0.00 0.00 0.00 78 1017.6
20260830171521 72 59 4.0 7.0 0.00 0.00 0.00 76 1017.5
20260830170521 73 54 5.0 7.0 0.00 0.00 0.00 74 1017.4
20260830165524 73 57 6.0 9.0 0.00 0.00 0.00 72 1017.3
20260830164533 74 63 7.0 9.0 0.00 0.00 0.00 69 1017.3
20260830163521 74 63 6.0 9.0 0.00 0.00 0.00 66 1017.3
20260830162521 75 54 7.0 9.0 0.00 0.00 0.00 60 1017.4
20260830161520 76 68 7.0 11.0 0.00 0.00 0.00 56 1017.4
20260830160557 77 56 7.0 9.0 0.00 0.00 0.00 53 1017.5
20260830155521 78 57 6.0 9.0 0.00 0.00 0.00 48 1017.5
20260830154521 78 56 6.0 11.0 0.00 0.00 0.00 46 1017.5
20260830153521 79 58 7.0 11.0 0.00 0.00 0.00 45 1017.5
20260830152521 79 65 6.0 9.0 0.00 0.00 0.00 44 1017.5
20260830151521 79 82 5.0 9.0 0.00 0.00 0.00 45 1017.5
20260830150541 79 67 6.0 9.0 0.00 0.00 0.00 45 1017.5
20260830145521 80 48 7.0 11.0 0.00 0.00 0.00 45 1017.5
20260830144521 80 53 7.0 11.0 0.00 0.00 0.00 46 1017.5
20260830143521 80 64 5.0 11.0 0.00 0.00 0.00 47 1017.5
20260830142521 80 75 5.0 9.0 0.00 0.00 0.00 47 1017.5
20260830141533 80 89 4.0 7.0 0.00 0.00 0.00 51 1017.5
20260830140533 80 74 4.0 9.0 0.00 0.00 0.00 49 1017.6
20260830135521 80 57 5.0 9.0 0.00 0.00 0.00 48 1017.6